This demonstration page uses our WeatherBlox Daily Observations layout. Learn more.

Left ArrowRight Arrow

34.02893, -84.19858

Hourly Observations for September 29, 2022

Temp ( °F °C ) Dew Point ( °F °C ) Humidity (%) Winds ( mph kmh ) Pressure ( in mb ) Visibility ( mi km ) Precip ( " mm )
12:53 am 00:53 Clear 49 9.4 43 6.1 80 80 NNE 5 7 30.19 1022 10 16 0.00 0.00
1:53 am 01:53 Clear 49 9.4 43 6.1 80 80 NNE 6 9 30.18 1022 10 16 0.00 0.00
2:53 am 02:53 Clear 46 7.8 42 5.6 86 86 N 5 7 30.17 1022 10 16 0.00 0.00
3:53 am 03:53 Clear 46 7.8 42 5.6 86 86 N 6 9 30.17 1022 10 16 0.00 0.00
4:53 am 04:53 Clear 46 7.8 41 5 82 82 N 6 9 30.16 1021 10 16 0.00 0.00
5:53 am 05:53 Clear 53 11.7 38 3.3 56 56 NNE 9 15 30.15 1021 10 16 0.00 0.00
6:53 am 06:53 Clear 54 12.2 39 3.9 57 57 VRB 7 11 30.15 1021 10 16 0.00 0.00
7:53 am 07:53 Sunny 53 11.7 39 3.9 59 59 VRB 7 11 30.16 1021 10 16 0.00 0.00
8:53 am 08:53 Sunny 56 13.3 40 4.4 55 55 NE 8 13 30.17 1022 10 16 0.00 0.00
9:53 am 09:53 Sunny 59 15 41 5 51 51 NNE 8 13 30.18 1022 10 16 0.00 0.00
10:53 am 10:53 Sunny 62 16.7 41 5 46 46 NNE 16 26 30.17 1022 10 16 0.00 0.00
11:53 am 11:53 Sunny 64 17.8 41 5 43 43 undefined N/A 30.18 1022 10 16 0.00 0.00
12:53 pm 12:53 Sunny 66 18.9 41 5 40 40 NE 15 24 30.16 1021 10 16 0.00 0.00
1:53 pm 13:53 Sunny 69 20.6 42 5.6 37 37 undefined N/A 30.13 1020 10 16 0.00 0.00
2:53 pm 14:53 Sunny 70 21.1 41 5 35 35 ENE 9 15 30.11 1020 10 16 0.00 0.00
3:53 pm 15:53 Sunny 71 21.7 41 5 34 34 NNE 13 20 30.09 1019 10 16 0.00 0.00
4:53 pm 16:53 Sunny 71 21.7 41 5 34 34 NNE 13 20 30.08 1019 10 16 0.00 0.00
5:53 pm 17:53 Sunny 70 21.1 42 5.6 36 36 NE 13 20 30.07 1018 10 16 0.00 0.00
6:53 pm 18:53 Sunny 67 19.4 43 6.1 42 42 NE 8 13 30.07 1018 10 16 0.00 0.00
7:53 pm 19:53 Clear 65 18.3 41 5 41 41 NE 8 13 30.08 1019 10 16 0.00 0.00
8:53 pm 20:53 Clear 63 17.2 42 5.6 46 46 NNE 8 13 30.07 1018 10 16 0.00 0.00
9:53 pm 21:53 Clear 62 16.7 44 6.7 52 52 VRB 6 9 30.07 1018 10 16 0.00 0.00
10:53 pm 22:53 Clear 61 16.1 44 6.7 54 54 VRB 6 9 30.07 1018 10 16 0.00 0.00
11:53 pm 23:53 Mostly Clear 61 16.1 44 6.7 54 54 undefined N/A 30.04 1017 10 16 0.00 0.00

Powered by AerisWeather